Waterville, ME

5:09 PM EDT on July 23, 2017 (GMT -0400)
Waterville Lafleur

Weather History for KWVL - January, 2014

Change the Weather History Date:

Friday, January 3, 2014

  Actual Average Record
Temperature  
Mean Temperature -6 °F -  
Max Temperature 1 °F 30 °F 48 °F (1960)
Min Temperature -16 °F 9 °F -20 °F (1981)
Degree Days  
Heating Degree Days 72    
Moisture  
Dew Point -13 °F    
Average Humidity 75    
Maximum Humidity 92    
Minimum Humidity 56    
Precipitation  
Precipitation 0.00 in - - ()
Sea Level Pressure  
Sea Level Pressure 29.99 in    
Wind  
Wind Speed - (North)    
Max Wind Speed -    
Max Gust Speed -    
Visibility 6 miles    
Events      
Averages and records for this station are not official NWS values.
T = Trace of Precipitation, MM = Missing Value Source: NWS Daily Summary

Daily Weather History Graph

Daily Weather History Graph

Search for Another Location

Airport or City:

Trip Planner

Search our weather history database for the weather conditions in past years. The results will help you decide how hot, cold, wet, or windy it might be!

Date:

Astronomy

Jan. 03, 2014 Rise Set
Actual Time 7:15 AM EST 4:11 PM EST
Civil Twilight 6:42 AM EST 4:44 PM EST
Nautical Twilight 6:05 AM EST 5:21 PM EST
Astronomical Twilight 5:30 AM EST 5:56 PM EST
Moon 8:32 AM EST (1/3) 7:24 PM EST (1/3)
Length of Visible Light 10h 02m
Length of Day
8h 56m
Waxing Crescent, 8% of the Moon is Illuminated
Jan 3
Waxing Crescent
Jan 7
First Quarter
Jan 15
Full
Jan 24
Last Quarter
Jan 30
New

Hourly Weather History & Observations

Time (EST) Temp. Dew Point Humidity Pressure Visibility Wind Dir Wind Speed Gust Speed Precip Events Conditions
12:15 AM -9.4 °F -13.0 °F 84% 29.97 in 1.2 mi North - - N/A   Overcast
12:35 AM -9.4 °F -13.0 °F 84% 29.96 in 1.5 mi North - - N/A   Overcast
12:55 AM -9.4 °F -13.0 °F 84% 29.96 in 2.5 mi North - - N/A   Mostly Cloudy
1:15 AM -9.4 °F -14.8 °F 77% 29.96 in 3.0 mi North - - N/A   Mostly Cloudy
1:35 AM -9.4 °F -13.0 °F 84% 29.98 in 3.0 mi North - - N/A   Overcast
1:55 AM -9.4 °F -14.8 °F 77% 29.97 in 2.0 mi North - - N/A   Overcast
2:15 AM -9.4 °F -14.8 °F 77% 29.95 in 2.0 mi North - - N/A   Overcast
2:35 AM -9.4 °F -14.8 °F 77% 29.96 in 2.5 mi North - - N/A   Overcast
2:55 AM -9.4 °F -14.8 °F 77% 29.94 in 2.5 mi North - - N/A   Overcast
3:15 AM -9.4 °F -14.8 °F 77% 29.91 in 2.0 mi North - - N/A   Overcast
3:35 AM -9.4 °F -14.8 °F 77% 29.91 in 2.5 mi North - - N/A   Overcast
3:55 AM -9.4 °F -13.0 °F 84% 29.89 in 2.5 mi North - - N/A   Overcast
4:15 AM -7.6 °F -13.0 °F 77% 29.88 in 1.8 mi North - - N/A   Overcast
4:35 AM -7.6 °F -11.2 °F 84% 29.90 in 1.5 mi North - - N/A   Overcast
4:55 AM -7.6 °F -11.2 °F 84% 29.88 in 1.5 mi North - - N/A   Overcast
5:15 AM -7.6 °F -11.2 °F 84% 29.87 in 1.2 mi North - - N/A   Overcast
5:35 AM -7.6 °F -11.2 °F 84% 29.86 in 1.2 mi North - - N/A   Overcast
5:55 AM -7.6 °F -11.2 °F 84% 29.87 in 1.2 mi North - - N/A   Overcast
6:15 AM -7.6 °F -11.2 °F 84% 29.87 in 1.0 mi North - - N/A   Overcast
6:35 AM -7.6 °F -11.2 °F 84% 29.88 in 1.0 mi North - - N/A   Overcast
6:55 AM -7.6 °F -9.4 °F 92% 29.89 in 1.0 mi North - - N/A   Overcast
7:15 AM -7.6 °F -9.4 °F 92% 29.89 in 0.5 mi North - - N/A   Overcast
7:35 AM -7.6 °F -9.4 °F 92% 29.89 in 0.8 mi North - - N/A   Overcast
7:55 AM -7.6 °F -11.2 °F 84% 29.89 in 0.8 mi North - - N/A   Overcast
8:15 AM -7.6 °F -11.2 °F 84% 29.89 in 1.0 mi North - - N/A   Overcast
8:35 AM -7.6 °F -11.2 °F 84% 29.90 in 1.0 mi North - - N/A   Overcast
8:55 AM -7.6 °F -11.2 °F 84% 29.90 in 1.5 mi North - - N/A   Overcast
9:15 AM -7.6 °F -9.4 °F 92% 29.91 in 3.0 mi North - - N/A   Overcast
9:35 AM -7.6 °F -11.2 °F 84% 29.91 in 2.5 mi North - - N/A   Overcast
9:55 AM -5.8 °F -11.2 °F 77% 29.91 in 3.0 mi North - - N/A   Partly Cloudy
10:15 AM -5.8 °F -11.2 °F 77% 29.91 in 5.0 mi North - - N/A   Clear
10:35 AM -5.8 °F -11.2 °F 77% 29.91 in 7.0 mi North - - N/A   Partly Cloudy
10:55 AM -5.8 °F - N/A% 29.92 in 4.0 mi North - - N/A   Partly Cloudy
11:15 AM -5.8 °F -11.2 °F 77% 29.92 in 4.0 mi North - - N/A   Clear
11:35 AM -5.8 °F -11.2 °F 77% 29.91 in 9.0 mi North - - N/A   Clear
11:55 AM -4.0 °F -11.2 °F 71% 29.91 in 10.0 mi North - - N/A   Clear
12:15 PM -4.0 °F -13.0 °F 65% 29.92 in 10.0 mi North - - N/A   Clear
12:35 PM -2.2 °F -11.2 °F 66% 29.92 in 10.0 mi North - - N/A   Clear
12:55 PM -0.4 °F -9.4 °F 66% 29.93 in 10.0 mi North - - N/A   Clear
1:15 PM -0.4 °F -11.2 °F 60% 29.94 in 10.0 mi North - - N/A   Clear
1:35 PM -0.4 °F -11.2 °F 60% 29.95 in 10.0 mi North - - N/A   Clear
1:55 PM -0.4 °F -11.2 °F 60% 29.97 in 10.0 mi North - - N/A   Clear
2:15 PM 1.4 °F -11.2 °F 56% 29.98 in 10.0 mi North - - N/A   Clear
2:35 PM 1.4 °F -9.4 °F 61% 29.99 in 10.0 mi North - - N/A   Clear
2:55 PM 1.4 °F -11.2 °F 56% 30.00 in 10.0 mi North - - N/A   Partly Cloudy
3:15 PM 1.4 °F -9.4 °F 61% - 10.0 mi North - - N/A   Clear
3:35 PM 1.4 °F -11.2 °F 56% - 10.0 mi North - - N/A   Partly Cloudy
3:55 PM -0.4 °F -11.2 °F 60% - 10.0 mi North - - N/A   Clear
4:15 PM -0.4 °F -11.2 °F 60% 30.06 in 10.0 mi North - - N/A   Clear
4:35 PM -0.4 °F -11.2 °F 60% 30.07 in 10.0 mi North - - N/A   Clear
4:55 PM -0.4 °F -11.2 °F 60% 30.09 in 10.0 mi North - - N/A   Clear
5:15 PM -0.4 °F -11.2 °F 60% - 10.0 mi North - - N/A   Clear
5:35 PM -0.4 °F -11.2 °F 60% 30.11 in 10.0 mi North - - N/A   Clear
5:55 PM -2.2 °F - N/A% 30.14 in 10.0 mi North - - N/A   Clear
6:15 PM -2.2 °F -13.0 °F 60% 30.15 in 10.0 mi North - - N/A   Clear
6:35 PM -2.2 °F -11.2 °F 66% 30.17 in 10.0 mi North - - N/A   Clear
6:55 PM -2.2 °F -11.2 °F 66% 30.19 in 10.0 mi North - - N/A   Clear
7:15 PM -4.0 °F -14.8 °F 60% 30.20 in 10.0 mi North - - N/A   Clear
7:35 PM -5.8 °F -14.8 °F 65% 30.20 in 10.0 mi North - - N/A   Clear
7:55 PM -5.8 °F -14.8 °F 65% 30.21 in 10.0 mi North - - N/A   Clear
8:15 PM -7.6 °F -14.8 °F 71% 30.21 in 10.0 mi North - - N/A   Clear
8:35 PM -7.6 °F -13.0 °F 77% 30.22 in 10.0 mi North - - N/A   Clear
8:55 PM -9.4 °F -14.8 °F 77% - 10.0 mi North - - N/A   Clear
9:15 PM -11.2 °F -18.4 °F 70% 30.23 in 10.0 mi North - - N/A   Clear
9:35 PM -13.0 °F -16.6 °F 84% - 10.0 mi North - - N/A   Clear
9:55 PM -11.2 °F -16.6 °F 77% 30.24 in 10.0 mi North - - N/A   Clear
10:15 PM -9.4 °F -11.2 °F 92% 30.25 in 10.0 mi North - - N/A   Clear
10:35 PM -11.2 °F -20.2 °F 64% - 10.0 mi North - - N/A   Clear
10:55 PM -14.8 °F -16.6 °F 92% - 10.0 mi North - - N/A   Clear
11:15 PM -14.8 °F -20.2 °F 77% - 10.0 mi North - - N/A   Clear
11:35 PM -13.0 °F -14.8 °F 92% - 10.0 mi North - - N/A   Clear
11:55 PM -16.6 °F -20.2 °F 84% - 10.0 mi North - - N/A   Clear